Weather History for Florence, Italy

Change the Weather History Date:

Wednesday, August 7, 2013

  Actual Average Record
Temperature  
Mean Temperature 83 °F -  
Max Temperature 102 °F 85 °F 102 °F (2013)
Min Temperature 64 °F 62 °F 59 °F (2000)
Cooling Degree Days 18    
Growing Degree Days 33 (Base 50)    
Moisture  
Dew Point 56 °F    
Average Humidity 44    
Maximum Humidity 83    
Minimum Humidity 20    
Precipitation  
Precipitation 0.00 in 0.10 in - ()
Sea Level Pressure  
Sea Level Pressure 29.92 in    
Wind  
Wind Speed 3 mph ()    
Max Wind Speed 10 mph    
Max Gust Speed 17 mph    
Visibility 6.2 miles    
Events      
Averages and records for this station are not official NWS values.
T = Trace of Precipitation, MM = Missing Value Source: Averaged Metar Reports

Daily Weather History Graph

Daily Weather History Graph

Search for Another Location

Airport:

Trip Planner

Search our weather history database for the weather conditions in past years. The results will help you decide how hot, cold, wet, or windy it might be!

Date:

Astronomy

Aug. 07, 2013 Rise Set
Actual Time 6:10 AM CEST 8:30 PM CEST
Civil Twilight 5:38 AM CEST 9:02 PM CEST
Nautical Twilight 4:58 AM CEST 9:42 PM CEST
Astronomical Twilight 4:13 AM CEST 10:26 PM CEST
Moon 6:46 AM CEST (8/7) 8:24 PM CEST (8/7)
Length of Visible Light 15h 24m
Length of Day
14h 20m
New Moon, 0% of the Moon is Illuminated
Aug 7
New Moon
Aug 14
First Quarter
Aug 21
Full
Aug 28
Last Quarter
Sep 5
New

Hourly Weather History & Observations

Time (CEST) Temp. Heat Index Dew Point Humidity Pressure Visibility Wind Dir Wind Speed Gust Speed Precip Events Conditions
12:20 AM 73.4 °F - 55.4 °F 53% 29.95 in - East 2.3 mph - N/A   Clear
12:50 AM 73.4 °F - 57.2 °F 57% 29.92 in - Variable 1.2 mph - N/A   Clear
1:20 AM 71.6 °F - 55.4 °F 57% 29.92 in - NE 3.5 mph - N/A   Clear
1:50 AM 71.6 °F - 57.2 °F 60% 29.92 in - ENE 3.5 mph - N/A   Clear
2:20 AM 69.8 °F - 57.2 °F 64% 29.92 in - Variable 2.3 mph - N/A   Clear
2:50 AM 69.8 °F - 57.2 °F 64% 29.92 in - NNE 3.5 mph - N/A   Clear
3:20 AM 69.8 °F - 57.2 °F 64% 29.92 in - Variable 1.2 mph - N/A   Clear
3:50 AM 69.8 °F - 60.8 °F 73% 29.92 in - West 1.2 mph - N/A   Clear
4:20 AM 66.2 °F - 59.0 °F 78% 29.92 in - East 3.5 mph - N/A   Clear
4:50 AM 68.0 °F - 59.0 °F 73% 29.92 in - Calm Calm - N/A   Clear
5:20 AM 64.4 °F - 59.0 °F 83% 29.92 in - Variable 1.2 mph - N/A   Clear
5:50 AM 66.2 °F - 57.2 °F 73% 29.92 in - East 3.5 mph - N/A   Clear
6:20 AM 66.2 °F - 57.2 °F 73% 29.92 in - Variable 2.3 mph - N/A   Clear
6:50 AM 64.4 °F - 59.0 °F 83% 29.92 in - Variable 1.2 mph - N/A   Clear
7:20 AM 68.0 °F - 59.0 °F 73% 29.95 in - Variable 2.3 mph - N/A   Clear
7:50 AM 73.4 °F - 59.0 °F 61% 29.95 in - Calm Calm - N/A   Clear
8:20 AM 75.2 °F - 59.0 °F 57% 29.95 in - Variable 1.2 mph - N/A   Clear
8:50 AM 77.0 °F - 60.8 °F 57% 29.95 in - Variable 1.2 mph - N/A   Clear
9:20 AM 78.8 °F - 59.0 °F 51% 29.95 in - Variable 2.3 mph - N/A   Clear
9:50 AM 80.6 °F 81.1 °F 59.0 °F 48% 29.95 in - Variable 2.3 mph - N/A   Clear
10:20 AM 84.2 °F 83.8 °F 59.0 °F 42% 29.95 in - Variable 2.3 mph - N/A   Clear
10:50 AM 86.0 °F 85.4 °F 59.0 °F 40% 29.95 in - Variable 2.3 mph - N/A   Clear
11:20 AM 87.8 °F 87.1 °F 59.0 °F 38% 29.95 in - Variable 2.3 mph - N/A   Clear
11:50 AM 91.4 °F 89.9 °F 57.2 °F 31% 29.95 in - Variable 2.3 mph - N/A   Clear
12:20 PM 93.2 °F 91.9 °F 57.2 °F 30% 29.92 in - Variable 2.3 mph - N/A   Clear
12:50 PM 95.0 °F 93.7 °F 57.2 °F 28% 29.92 in - Variable 2.3 mph - N/A   Clear
1:20 PM 96.8 °F 95.8 °F 57.2 °F 27% 29.92 in - Variable 4.6 mph - N/A   Clear
1:50 PM 96.8 °F 95.1 °F 55.4 °F 25% 29.92 in - Variable 4.6 mph - N/A   Clear
2:20 PM 98.6 °F 97.2 °F 55.4 °F 24% 29.89 in - Variable 3.5 mph - N/A   Clear
2:50 PM 98.6 °F 97.2 °F 55.4 °F 24% 29.89 in - Variable 4.6 mph - N/A   Clear
3:20 PM 98.6 °F 97.6 °F 57.2 °F 25% 29.89 in - Variable 4.6 mph - N/A   Clear
3:50 PM 102.2 °F 100.9 °F 55.4 °F 21% 29.89 in - Variable 5.8 mph 17.3 mph N/A   Clear
4:20 PM 102.2 °F 100.4 °F 53.6 °F 20% 29.89 in - Variable 5.8 mph - N/A   Clear
4:50 PM 100.4 °F 98.4 °F 53.6 °F 21% 29.89 in - South 8.1 mph - N/A   Clear
5:20 PM 98.6 °F 97.2 °F 55.4 °F 24% 29.89 in - SW 10.4 mph - N/A   Clear
5:50 PM 96.8 °F 95.8 °F 57.2 °F 27% 29.86 in 6.2 mi South 4.6 mph - N/A   Partly Cloudy
6:20 PM 96.8 °F 94.4 °F 53.6 °F 23% 29.86 in 6.2 mi SE 9.2 mph - N/A   Partly Cloudy
6:50 PM 96.8 °F - 51.8 °F 22% 29.86 in 6.2 mi South 6.9 mph - N/A   Partly Cloudy
7:20 PM 95.0 °F - 51.8 °F 23% 29.86 in 6.2 mi South 8.1 mph - N/A   Scattered Clouds
7:50 PM 93.2 °F - 51.8 °F 24% 29.89 in 6.2 mi South 8.1 mph - N/A   Scattered Clouds
8:20 PM 91.4 °F - 51.8 °F 26% 29.89 in 6.2 mi South 6.9 mph - N/A   Scattered Clouds
8:50 PM 89.6 °F - 51.8 °F 27% 29.89 in 6.2 mi SSE 6.9 mph - N/A   Partly Cloudy
9:20 PM 87.8 °F - 51.8 °F 29% 29.92 in 6.2 mi SSE 4.6 mph - N/A   Partly Cloudy
9:50 PM 86.0 °F - 51.8 °F 31% 29.92 in 6.2 mi Variable 1.2 mph - N/A   Partly Cloudy
10:20 PM 82.4 °F 81.4 °F 53.6 °F 37% 29.92 in - Variable 2.3 mph - N/A   Clear
10:50 PM 82.4 °F 82.0 °F 57.2 °F 42% 29.92 in - East 2.3 mph - N/A   Clear
11:20 PM 78.8 °F - 55.4 °F 44% 29.92 in - Variable 2.3 mph - N/A   Clear
11:50 PM 78.8 °F - 55.4 °F 44% 29.92 in - Calm Calm - N/A   Clear